• In Lithuania
  • List of Countries
  • For 7 days
  • Water Temperature
  • Satellite Maps
  • Weather Map
  • Weather Widgets
  • user-avatar
    Login

    Hourly Weather Adelaide

    Today, 20 August, Sunday

    Time Temperature Precipitation Wind Pressure Humidity
    00:00 +7°C° 0 mm 3 mps 766 mmHg 75%
    01:00 +7°C° 0 mm 3 mps 765 mmHg 73%
    02:00 +6°C° 0 mm 4 mps 765 mmHg 71%
    03:00 +6°C° 0 mm 4 mps 764 mmHg 69%
    04:00 +6°C° 0 mm 4 mps 764 mmHg 67%
    05:00 +6°C° 0 mm 5 mps 764 mmHg 65%
    06:00 +6°C° 0 mm 5 mps 763 mmHg 64%
    07:00 +7°C° 0 mm 6 mps 763 mmHg 60%
    08:00 +9°C° 0 mm 6 mps 763 mmHg 56%
    09:00 +11°C° 0 mm 7 mps 763 mmHg 51%
    10:00 +12°C° 0 mm 7 mps 762 mmHg 50%
    11:00 +14°C° 0 mm 7 mps 761 mmHg 48%
    12:00 +15°C° 0 mm 7 mps 760 mmHg 46%
    13:00 +14°C° 0 mm 7 mps 759 mmHg 47%
    14:00 +14°C° 0 mm 7 mps 758 mmHg 48%
    15:00 +13°C° 0 mm 6 mps 758 mmHg 49%
    16:00 +11°C° 0.7 mm 6 mps 757 mmHg 60%
    17:00 +9°C° 0.7 mm 6 mps 757 mmHg 71%
    18:00 +8°C° 0.7 mm 6 mps 757 mmHg 82%
    19:00 +8°C° 0.8 mm 7 mps 756 mmHg 82%
    20:00 +8°C° 0.8 mm 7 mps 756 mmHg 82%
    21:00 +7°C° 0.8 mm 8 mps 755 mmHg 82%
    22:00 +7°C° 0.1 mm 8 mps 754 mmHg 80%
    23:00 +7°C° 0.1 mm 8 mps 754 mmHg 78%

    Tomorrow, 21 August, Monday

    Time Temperature Precipitation Wind Pressure Humidity
    00:00 +7°C° 0.1 mm 8 mps 753 mmHg 76%
    01:00 +8°C° 0.1 mm 7 mps 752 mmHg 74%
    02:00 +8°C° 0.1 mm 7 mps 751 mmHg 72%
    03:00 +9°C° 0.1 mm 6 mps 751 mmHg 70%
    04:00 +9°C° 1.1 mm 6 mps 751 mmHg 77%
    05:00 +9°C° 1.1 mm 6 mps 750 mmHg 84%
    06:00 +9°C° 1.1 mm 6 mps 750 mmHg 91%
    07:00 +10°C° 0.2 mm 5 mps 751 mmHg 90%
    08:00 +12°C° 0.2 mm 5 mps 751 mmHg 89%
    09:00 +13°C° 0.2 mm 4 mps 751 mmHg 88%
    10:00 +14°C° 0.1 mm 4 mps 752 mmHg 84%
    11:00 +15°C° 0.1 mm 5 mps 752 mmHg 81%
    12:00 +16°C° 0.1 mm 5 mps 753 mmHg 78%
    13:00 +15°C° 0 mm 5 mps 753 mmHg 76%
    14:00 +15°C° 0 mm 6 mps 754 mmHg 74%
    15:00 +15°C° 0 mm 6 mps 754 mmHg 73%
    16:00 +13°C° 0 mm 5 mps 755 mmHg 77%
    17:00 +12°C° 0 mm 4 mps 756 mmHg 82%
    18:00 +11°C° 0 mm 3 mps 757 mmHg 86%
    19:00 +10°C° 0 mm 3 mps 758 mmHg 87%
    20:00 +10°C° 0 mm 2 mps 758 mmHg 88%
    21:00 +9°C° 0 mm 2 mps 759 mmHg 88%
    22:00 +10°C° 0 mm 1 mps 759 mmHg 88%
    23:00 +10°C° 0 mm 1 mps 759 mmHg 88%

    Day after tomorrow, 22 August, Tuesday

    Time Temperature Precipitation Wind Pressure Humidity
    00:00 +10°C° 0 mm 1 mps 760 mmHg 88%
    01:00 +9°C° 0 mm 2 mps 760 mmHg 89%
    02:00 +9°C° 0 mm 2 mps 760 mmHg 90%
    03:00 +10°C° 0 mm 2 mps 760 mmHg 91%
    04:00 +10°C° 0.1 mm 3 mps 760 mmHg 91%
    05:00 +11°C° 0.1 mm 3 mps 761 mmHg 91%
    06:00 +11°C° 0.1 mm 3 mps 761 mmHg 90%
    07:00 +12°C° 0 mm 3 mps 762 mmHg 85%
    08:00 +13°C° 0 mm 3 mps 762 mmHg 80%
    09:00 +14°C° 0 mm 4 mps 762 mmHg 75%
    10:00 +14°C° 0 mm 4 mps 762 mmHg 70%
    11:00 +16°C° 0 mm 3 mps 762 mmHg 65%
    12:00 +17°C° 0 mm 3 mps 762 mmHg 60%
    13:00 +17°C° 0 mm 3 mps 762 mmHg 62%
    14:00 +17°C° 0 mm 4 mps 761 mmHg 63%
    15:00 +17°C° 0 mm 4 mps 761 mmHg 64%
    16:00 +16°C° 0 mm 3 mps 761 mmHg 70%
    17:00 +13°C° 0 mm 3 mps 762 mmHg 76%
    18:00 +12°C° 0 mm 3 mps 762 mmHg 83%
    19:00 +12°C° 0 mm 3 mps 762 mmHg 84%
    20:00 +12°C° 0 mm 2 mps 763 mmHg 86%
    21:00 +12°C° 0 mm 2 mps 763 mmHg 87%
    22:00 +11°C° 0 mm 3 mps 763 mmHg 88%
    23:00 +11°C° 0 mm 3 mps 763 mmHg 89%

    23 August, Wednesday

    Time Temperature Precipitation Wind Pressure Humidity
    00:00 +10°C° 0 mm 3 mps 763 mmHg 89%
    01:00 +10°C° 0 mm 3 mps 762 mmHg 90%
    02:00 +10°C° 0 mm 3 mps 762 mmHg 91%
    03:00 +10°C° 0 mm 4 mps 762 mmHg 91%
    04:00 +10°C° 0 mm 4 mps 762 mmHg 91%
    05:00 +10°C° 0 mm 4 mps 762 mmHg 92%
    06:00 +10°C° 0 mm 4 mps 762 mmHg 92%
    07:00 +11°C° 0.1 mm 4 mps 763 mmHg 88%
    08:00 +12°C° 0.1 mm 5 mps 763 mmHg 84%
    09:00 +13°C° 0.1 mm 5 mps 763 mmHg 81%
    10:00 +14°C° 0.3 mm 6 mps 763 mmHg 77%
    11:00 +15°C° 0.3 mm 6 mps 763 mmHg 73%
    12:00 +16°C° 0.3 mm 6 mps 763 mmHg 70%
    13:00 +16°C° 0.4 mm 6 mps 763 mmHg 72%
    14:00 +15°C° 0.4 mm 5 mps 762 mmHg 74%
    15:00 +15°C° 0.4 mm 5 mps 762 mmHg 75%
    16:00 +14°C° 0.1 mm 5 mps 763 mmHg 79%
    17:00 +13°C° 0.1 mm 4 mps 764 mmHg 83%
    18:00 +11°C° 0.1 mm 4 mps 764 mmHg 87%
    19:00 +11°C° 0 mm 3 mps 765 mmHg 86%
    20:00 +10°C° 0 mm 3 mps 765 mmHg 86%
    21:00 +10°C° 0 mm 3 mps 766 mmHg 85%
    22:00 +9°C° 0 mm 3 mps 766 mmHg 85%
    23:00 +9°C° 0 mm 2 mps 766 mmHg 84%

    24 August, Thursday

    Time Temperature Precipitation Wind Pressure Humidity
    00:00 +8°C° 0 mm 2 mps 766 mmHg 84%
    01:00 +8°C° 0 mm 2 mps 766 mmHg 84%
    02:00 +9°C° 0 mm 1 mps 766 mmHg 84%
    03:00 +8°C° 0 mm 1 mps 766 mmHg 85%
    04:00 +8°C° 0 mm 1 mps 766 mmHg 85%
    05:00 +8°C° 0 mm 1 mps 767 mmHg 85%
    06:00 +8°C° 0 mm 1 mps 767 mmHg 85%
    07:00 +9°C° 0 mm 1 mps 767 mmHg 79%
    08:00 +11°C° 0 mm 1 mps 767 mmHg 73%
    09:00 +13°C° 0 mm 1 mps 768 mmHg 67%
    10:00 +14°C° 0 mm 1 mps 767 mmHg 62%
    11:00 +15°C° 0 mm 1 mps 767 mmHg 56%
    12:00 +16°C° 0 mm 1 mps 767 mmHg 50%
    13:00 +16°C° 0 mm 1 mps 766 mmHg 51%
    14:00 +16°C° 0 mm 2 mps 766 mmHg 52%
    15:00 +15°C° 0 mm 2 mps 766 mmHg 53%
    16:00 +14°C° 0 mm 2 mps 766 mmHg 58%
    17:00 +13°C° 0 mm 2 mps 766 mmHg 63%
    18:00 +10°C° 0 mm 2 mps 766 mmHg 68%
    19:00 +10°C° 0 mm 2 mps 767 mmHg 71%
    20:00 +9°C° 0 mm 2 mps 767 mmHg 74%
    21:00 +9°C° 0 mm 1 mps 767 mmHg 77%
    22:00 +9°C° 0 mm 1 mps 767 mmHg 78%
    23:00 +9°C° 0 mm 1 mps 767 mmHg 78%

    25 August, Friday

    Time Temperature Precipitation Wind Pressure Humidity
    00:00 +8°C° 0 mm 1 mps 767 mmHg 79%
    01:00 +8°C° 0 mm 1 mps 766 mmHg 79%
    02:00 +8°C° 0 mm 1 mps 766 mmHg 79%
    03:00 +8°C° 0 mm 1 mps 766 mmHg 79%
    04:00 +8°C° 0 mm 1 mps 766 mmHg 79%
    05:00 +8°C° 0 mm 1 mps 766 mmHg 79%
    06:00 +7°C° 0 mm 2 mps 767 mmHg 79%
    07:00 +8°C° 0 mm 2 mps 767 mmHg 73%
    08:00 +10°C° 0 mm 2 mps 767 mmHg 67%
    09:00 +13°C° 0 mm 2 mps 767 mmHg 61%
    10:00 +14°C° 0 mm 2 mps 767 mmHg 57%
    11:00 +15°C° 0 mm 2 mps 767 mmHg 53%
    12:00 +16°C° 0 mm 2 mps 766 mmHg 49%
    13:00 +16°C° 0 mm 2 mps 766 mmHg 50%
    14:00 +16°C° 0 mm 2 mps 766 mmHg 50%
    15:00 +16°C° 0 mm 3 mps 765 mmHg 51%
    16:00 +14°C° 0 mm 2 mps 766 mmHg 57%
    17:00 +12°C° 0 mm 2 mps 766 mmHg 62%
    18:00 +10°C° 0 mm 2 mps 766 mmHg 68%
    19:00 +9°C° 0 mm 2 mps 767 mmHg 70%
    20:00 +9°C° 0 mm 2 mps 767 mmHg 72%
    21:00 +9°C° 0 mm 1 mps 767 mmHg 73%
    22:00 +8°C° 0 mm 2 mps 767 mmHg 75%
    23:00 +8°C° 0 mm 2 mps 767 mmHg 76%
    Show more